Weather History for CYXX - February, 2013

Change the Weather History Date:

Wednesday, February 27, 2013

  Actual Average Record
Temperature  
Mean Temperature 39 °F -  
Max Temperature 46 °F 52 °F 66 °F (2005)
Min Temperature 32 °F 35 °F 26 °F (2002)
Degree Days  
Heating Degree Days 26    
Moisture  
Dew Point 37 °F    
Average Humidity 89    
Maximum Humidity 100    
Minimum Humidity 66    
Precipitation  
Precipitation 0.16 in 0.19 in - ()
Sea Level Pressure  
Sea Level Pressure 30.28 in    
Wind  
Wind Speed 4 mph ()    
Max Wind Speed 8 mph    
Max Gust Speed -    
Visibility 14.1 miles    
Events Fog , Rain    
Averages and records for this station are not official NWS values.
T = Trace of Precipitation, MM = Missing Value Source: Averaged Metar Reports

Daily Weather History Graph

Daily Weather History Graph

Search for Another Location

Airport or City:

Trip Planner

Search our weather history database for the weather conditions in past years. The results will help you decide how hot, cold, wet, or windy it might be!

Date:

Astronomy

Feb. 27, 2013 Rise Set
Actual Time 6:54 AM PST 5:50 PM PST
Civil Twilight 6:22 AM PST 6:22 PM PST
Nautical Twilight 5:46 AM PST 6:58 PM PST
Astronomical Twilight 5:09 AM PST 7:35 PM PST
Moon 8:35 PM PST (2/27) 7:18 AM PST (2/27)
Length of Visible Light 11h 59m
Length of Day
10h 55m
Waning Gibbous, 96% of the Moon is Illuminated
Feb 27
Waning Gibbous
Mar 4
Last Quarter
Mar 11
New
Mar 19
First Quarter
Mar 27
Full

Hourly Weather History & Observations

Time (PST) Temp. Windchill Dew Point Humidity Pressure Visibility Wind Dir Wind Speed Gust Speed Precip Events Conditions
12:00 AM 37.4 °F 31.4 °F 37.4 °F 100% 30.19 in 6.0 mi North 8.1 mph - N/A Rain Light Rain Showers
1:00 AM 39.2 °F 35.0 °F 37.4 °F 93% 30.20 in 5.0 mi West 5.8 mph - N/A Rain Light Rain Showers
2:00 AM 39.2 °F 34.2 °F 37.4 °F 93% 30.21 in 10.0 mi SSE 6.9 mph - N/A Rain Light Rain Showers
2:36 AM 37.4 °F 33.8 °F 35.6 °F 93% 30.21 in 10.0 mi ENE 4.6 mph - N/A   Mostly Cloudy
3:00 AM 35.6 °F - 35.6 °F 100% 30.22 in 15.0 mi Calm Calm - N/A   Partly Cloudy
3:19 AM 35.6 °F - 33.8 °F 93% 30.22 in 15.0 mi Calm Calm - N/A Fog Partly Cloudy
4:00 AM 34 °F - 34 °F 99% 30.24 in 15 mi North 3.5 mph - -   Partly Cloudy
4:00 AM 33.8 °F 29.6 °F 33.8 °F 100% 30.24 in 15.0 mi North 4.6 mph - N/A Fog Scattered Clouds
5:00 AM 33.8 °F 30.8 °F 33.8 °F 100% 30.26 in 15.0 mi North 3.5 mph - N/A   Mostly Cloudy
6:00 AM 33.8 °F 30.8 °F 33.8 °F 100% 30.29 in 15.0 mi North 3.5 mph - N/A   Mostly Cloudy
7:00 AM 33.8 °F 30.8 °F 33.8 °F 100% 30.30 in 25.0 mi North 3.5 mph - N/A   Mostly Cloudy
8:00 AM 35.6 °F 31.7 °F 35.6 °F 100% 30.30 in 30.0 mi North 4.6 mph - N/A   Overcast
9:00 AM 37.4 °F 34.9 °F 37.4 °F 100% 30.30 in 30.0 mi NNE 3.5 mph - N/A   Overcast
10:00 AM 42 °F - 38 °F 81% 30.31 in 28 mi North 4.6 mph - -   Overcast
10:00 AM 41.0 °F 38.0 °F 37.4 °F 87% 30.31 in 30.0 mi NNW 4.6 mph - N/A   Overcast
11:00 AM 44.6 °F 41.4 °F 37.4 °F 76% 30.31 in 20.0 mi NE 5.8 mph - N/A   Mostly Cloudy
12:00 PM 46.4 °F - 37.4 °F 71% 30.32 in 20.0 mi Calm Calm - N/A   Mostly Cloudy
1:00 PM 44.6 °F - 37.4 °F 76% 30.30 in 20.0 mi ESE 2.3 mph - N/A   Overcast
2:00 PM 44.6 °F - 35.6 °F 71% 30.30 in 20.0 mi Calm Calm - N/A   Overcast
3:00 PM 46.4 °F 45.2 °F 35.6 °F 66% 30.29 in 20.0 mi NNW 3.5 mph - N/A   Overcast
4:00 PM 44.6 °F 42.2 °F 37.4 °F 76% 30.28 in 15.0 mi North 4.6 mph - N/A   Overcast
5:00 PM 44.6 °F 42.2 °F 37.4 °F 76% 30.29 in 15.0 mi North 4.6 mph - N/A   Overcast
5:34 PM 42.8 °F 38.6 °F 37.4 °F 81% 30.30 in 15.0 mi NNE 6.9 mph - N/A Rain Light Rain
6:00 PM 42.8 °F 41.1 °F 39.2 °F 87% 30.30 in 10.0 mi NW 3.5 mph - N/A Rain Light Rain
7:00 PM 41.0 °F 39.0 °F 39.2 °F 93% 30.31 in 6.0 mi ENE 3.5 mph - N/A Rain Light Rain
8:00 PM 41.0 °F 38.0 °F 37.4 °F 87% 30.31 in 10.0 mi NE 4.6 mph - N/A   Overcast
9:00 PM 39.2 °F 35.0 °F 37.4 °F 93% 30.30 in 15.0 mi NNE 5.8 mph - N/A   Overcast
10:00 PM 38 °F - 37 °F 93% 30.31 in 15 mi North 5.8 mph - -   Partly Cloudy
10:00 PM 39.2 °F 34.2 °F 37.4 °F 93% 30.31 in 15.0 mi North 6.9 mph - N/A   Mostly Cloudy
11:00 PM 39.2 °F 34.2 °F 37.4 °F 93% 30.30 in 15.0 mi NE 6.9 mph - N/A   Mostly Cloudy